| time (UTC) | temp C | wind direction | speed KPH | gust KPH | rain 1hr cm | rain 24hr cm | rain mn cm | humidity % | barometer mb |
| 20260905204913 | 16 | 233 | 0.0 | 4.8 | 0.00 | 0.00 | 0.00 | 54 | 1021.6 |
| 20260905203915 | 16 | 203 | 0.0 | 4.8 | 0.00 | 0.00 | 0.00 | 55 | 1021.6 |
| 20260905202915 | 16 | 225 | 0.0 | 3.2 | 0.00 | 0.00 | 0.00 | 56 | 1021.6 |
| 20260905201912 | 16 | 234 | 0.0 | 3.2 | 0.00 | 0.00 | 0.00 | 56 | 1021.7 |
| 20260905201012 | 16 | 189 | 1.6 | 4.8 | 0.00 | 0.00 | 0.00 | 56 | 1021.7 |
| 20260905195113 | 16 | 202 | 1.6 | 6.4 | 0.00 | 0.00 | 0.00 | 58 | 1021.8 |
| 20260905193114 | 16 | 225 | 3.2 | 4.8 | 0.00 | 0.00 | 0.00 | 58 | 1021.9 |
| 20260905192130 | 16 | 205 | 1.6 | 3.2 | 0.00 | 0.00 | 0.00 | 57 | 1021.8 |
| 20260905190214 | 17 | 220 | 1.6 | 6.4 | 0.00 | 0.00 | 0.00 | 53 | 1021.9 |
| 20260905185212 | 17 | 214 | 3.2 | 8.0 | 0.00 | 0.00 | 0.00 | 53 | 1021.8 |
| 20260905184312 | 16 | 193 | 4.8 | 8.0 | 0.00 | 0.00 | 0.00 | 56 | 1021.8 |
| 20260905182313 | 16 | 226 | 3.2 | 6.4 | 0.00 | 0.00 | 0.00 | 56 | 1021.9 |
| 20260905181314 | 16 | 205 | 3.2 | 6.4 | 0.00 | 0.00 | 0.00 | 57 | 1021.9 |
| 20260905180312 | 16 | 237 | 4.8 | 8.0 | 0.00 | 0.00 | 0.00 | 56 | 1021.8 |
| 20260905175316 | 15 | 159 | 3.2 | 9.7 | 0.00 | 0.00 | 0.00 | 58 | 1021.5 |
| 20260905173413 | 15 | 217 | 1.6 | 3.2 | 0.00 | 0.00 | 0.00 | 61 | 1021.6 |
| 20260905172413 | 14 | 221 | 0.0 | 1.6 | 0.00 | 0.00 | 0.00 | 63 | 1021.6 |
| 20260905171413 | 14 | 199 | 4.8 | 8.0 | 0.00 | 0.00 | 0.00 | 62 | 1021.6 |
| 20260905170512 | 14 | 190 | 1.6 | 3.2 | 0.00 | 0.00 | 0.00 | 64 | 1021.5 |
| 20260905164515 | 14 | 155 | 4.8 | 8.0 | 0.00 | 0.00 | 0.00 | 64 | 1021.4 |
| 20260905162513 | 13 | 157 | 0.0 | 1.6 | 0.00 | 0.00 | 0.00 | 66 | 1021.5 |
| 20260905161515 | 13 | 180 | 0.0 | 1.6 | 0.00 | 0.00 | 0.00 | 68 | 1021.4 |
| 20260905160612 | 13 | 180 | 0.0 | 1.6 | 0.00 | 0.00 | 0.00 | 69 | 1021.4 |
| 20260905155613 | 12 | 157 | 0.0 | 0.0 | 0.00 | 0.00 | 0.00 | 70 | 1021.3 |
| 20260905154712 | 12 | 157 | 0.0 | 1.6 | 0.00 | 0.00 | 0.00 | 71 | 1021.3 |
| 20260905153714 | 12 | 157 | 0.0 | 0.0 | 0.00 | 0.00 | 0.00 | 72 | 1021.3 |
| 20260905152713 | 11 | 180 | 0.0 | 1.6 | 0.00 | 0.00 | 0.00 | 72 | 1021.3 |
| 20260905151714 | 11 | 157 | 0.0 | 0.0 | 0.00 | 0.00 | 0.00 | 74 | 1021.1 |
| 20260905150728 | 11 | 157 | 1.6 | 3.2 | 0.00 | 0.00 | 0.00 | 76 | 1021.0 |
| 20260905145811 | 10 | 157 | 1.6 | 3.2 | 0.00 | 0.00 | 0.00 | 77 | 1021.0 |
| 20260905144814 | 10 | 180 | 0.0 | 0.0 | 0.00 | 0.00 | 0.00 | 77 | 1020.9 |
| 20260905142813 | 10 | 180 | 0.0 | 0.0 | 0.00 | 0.00 | 0.00 | 78 | 1021.1 |
| 20260905141814 | 10 | 180 | 0.0 | 0.0 | 0.00 | 0.00 | 0.00 | 79 | 1020.9 |
| 20260905140815 | 10 | 180 | 0.0 | 0.0 | 0.00 | 0.00 | 0.00 | 77 | 1020.7 |
| 20260905134912 | 10 | 180 | 0.0 | 0.0 | 0.00 | 0.00 | 0.00 | 76 | 1020.6 |
| 20260905133914 | 10 | 180 | 0.0 | 0.0 | 0.00 | 0.00 | 0.00 | 76 | 1020.5 |
| 20260905132930 | 10 | 180 | 0.0 | 0.0 | 0.00 | 0.00 | 0.00 | 76 | 1020.4 |
| 20260905132014 | 10 | 180 | 0.0 | 0.0 | 0.00 | 0.00 | 0.00 | 75 | 1020.3 |
| 20260905131016 | 10 | 315 | 0.0 | 0.0 | 0.00 | 0.00 | 0.00 | 76 | 1020.1 |
| 20260905130012 | 10 | 315 | 0.0 | 0.0 | 0.00 | 0.00 | 0.00 | 75 | 1020.3 |
| 20260905125016 | 10 | 315 | 0.0 | 0.0 | 0.00 | 0.00 | 0.00 | 74 | 1020.3 |
| 20260905124014 | 10 | 315 | 0.0 | 0.0 | 0.00 | 0.00 | 0.00 | 74 | 1020.4 |
| 20260905123014 | 10 | 315 | 0.0 | 0.0 | 0.00 | 0.00 | 0.00 | 75 | 1020.5 |
| 20260905122014 | 10 | 315 | 0.0 | 0.0 | 0.00 | 0.00 | 0.00 | 73 | 1020.5 |
| 20260905121112 | 10 | 315 | 0.0 | 0.0 | 0.00 | 0.00 | 0.00 | 73 | 1020.5 |
| 20260905120116 | 10 | 315 | 0.0 | 0.0 | 0.00 | 0.00 | 0.00 | 74 | 1020.5 |
| 20260905115114 | 10 | 315 | 0.0 | 0.0 | 0.00 | 0.00 | 0.00 | 73 | 1020.5 |
| 20260905113212 | 10 | 315 | 0.0 | 0.0 | 0.00 | 0.00 | 0.00 | 74 | 1020.6 |
| 20260905112214 | 10 | 315 | 0.0 | 0.0 | 0.00 | 0.00 | 0.00 | 72 | 1020.5 |
| 20260905111214 | 10 | 315 | 0.0 | 0.0 | 0.00 | 0.00 | 0.00 | 73 | 1020.5 |
| 20260905105313 | 10 | 315 | 0.0 | 0.0 | 0.00 | 0.00 | 0.00 | 72 | 1020.5 |
| 20260905104314 | 10 | 315 | 0.0 | 0.0 | 0.00 | 0.00 | 0.00 | 73 | 1020.7 |
| 20260905103313 | 10 | 315 | 0.0 | 0.0 | 0.00 | 0.00 | 0.00 | 72 | 1020.7 |
| 20260905102313 | 10 | 315 | 0.0 | 0.0 | 0.00 | 0.00 | 0.00 | 73 | 1020.9 |
| 20260905101412 | 10 | 315 | 0.0 | 0.0 | 0.00 | 0.00 | 0.00 | 71 | 1020.6 |
| 20260905100429 | 10 | 315 | 0.0 | 0.0 | 0.00 | 0.00 | 0.00 | 72 | 1020.7 |
| 20260905095513 | 10 | 315 | 0.0 | 0.0 | 0.00 | 0.00 | 0.00 | 70 | 1020.7 |
| 20260905094513 | 10 | 315 | 0.0 | 0.0 | 0.00 | 0.00 | 0.00 | 70 | 1020.9 |
| 20260905093513 | 10 | 315 | 0.0 | 0.0 | 0.00 | 0.00 | 0.00 | 70 | 1020.8 |
| 20260905091514 | 10 | 315 | 0.0 | 0.0 | 0.00 | 0.00 | 0.00 | 71 | 1020.9 |
| 20260905090514 | 10 | 315 | 0.0 | 0.0 | 0.00 | 0.00 | 0.00 | 70 | 1020.9 |
| 20260905085611 | 10 | 315 | 0.0 | 0.0 | 0.00 | 0.00 | 0.00 | 71 | 1020.9 |
| 20260905084614 | 10 | 315 | 0.0 | 0.0 | 0.00 | 0.00 | 0.00 | 70 | 1020.9 |
| 20260905083713 | 10 | 315 | 0.0 | 0.0 | 0.00 | 0.00 | 0.00 | 71 | 1020.9 |
| 20260905082715 | 10 | 315 | 0.0 | 0.0 | 0.00 | 0.00 | 0.00 | 71 | 1021.1 |
| 20260905080812 | 9 | 315 | 0.0 | 0.0 | 0.00 | 0.00 | 0.00 | 71 | 1021.1 |
| 20260905075911 | 8 | 315 | 0.0 | 0.0 | 0.00 | 0.00 | 0.00 | 71 | 1021.1 |
| 20260905074912 | 8 | 180 | 0.0 | 0.0 | 0.00 | 0.00 | 0.00 | 73 | 1021.1 |
| 20260905073929 | 8 | 180 | 0.0 | 0.0 | 0.00 | 0.00 | 0.00 | 73 | 1021.1 |
| 20260905073014 | 8 | 180 | 0.0 | 0.0 | 0.00 | 0.00 | 0.00 | 72 | 1021.1 |
| 20260905072015 | 8 | 180 | 0.0 | 0.0 | 0.00 | 0.00 | 0.00 | 73 | 1021.1 |
| 20260905071014 | 8 | 180 | 0.0 | 0.0 | 0.00 | 0.00 | 0.00 | 73 | 1021.1 |
| 20260905065112 | 8 | 180 | 0.0 | 0.0 | 0.00 | 0.00 | 0.00 | 73 | 1020.8 |
| 20260905064115 | 8 | 180 | 0.0 | 0.0 | 0.00 | 0.00 | 0.00 | 74 | 1020.9 |
| 20260905062212 | 8 | 180 | 0.0 | 0.0 | 0.00 | 0.00 | 0.00 | 73 | 1020.9 |
| 20260905061213 | 8 | 180 | 0.0 | 0.0 | 0.00 | 0.00 | 0.00 | 74 | 1020.9 |
| 20260905060212 | 8 | 180 | 0.0 | 0.0 | 0.00 | 0.00 | 0.00 | 72 | 1020.9 |
| 20260905055230 | 9 | 180 | 0.0 | 0.0 | 0.00 | 0.00 | 0.00 | 72 | 1020.9 |
| 20260905054315 | 9 | 180 | 0.0 | 0.0 | 0.00 | 0.00 | 0.00 | 73 | 1020.9 |
| 20260905053412 | 9 | 180 | 0.0 | 0.0 | 0.00 | 0.00 | 0.00 | 73 | 1020.9 |
| 20260905052431 | 8 | 180 | 0.0 | 0.0 | 0.00 | 0.00 | 0.00 | 74 | 1020.9 |
| 20260905051415 | 8 | 180 | 0.0 | 0.0 | 0.00 | 0.00 | 0.00 | 73 | 1021.1 |
| 20260905050415 | 8 | 180 | 0.0 | 0.0 | 0.00 | 0.00 | 0.00 | 73 | 1021.0 |
| 20260905045412 | 8 | 180 | 0.0 | 0.0 | 0.00 | 0.00 | 0.00 | 73 | 1020.9 |
| 20260905044429 | 8 | 180 | 0.0 | 0.0 | 0.00 | 0.00 | 0.00 | 73 | 1020.9 |
| 20260905042513 | 8 | 180 | 0.0 | 0.0 | 0.00 | 0.00 | 0.00 | 73 | 1020.7 |
| 20260905041514 | 8 | 180 | 0.0 | 0.0 | 0.00 | 0.00 | 0.00 | 72 | 1020.7 |
| 20260905040612 | 8 | 180 | 0.0 | 0.0 | 0.00 | 0.00 | 0.00 | 71 | 1020.6 |
| 20260905034612 | 9 | 180 | 0.0 | 0.0 | 0.00 | 0.00 | 0.00 | 70 | 1020.3 |
| 20260905033612 | 9 | 180 | 0.0 | 0.0 | 0.00 | 0.00 | 0.00 | 68 | 1020.3 |
| 20260905032613 | 10 | 180 | 0.0 | 0.0 | 0.00 | 0.00 | 0.00 | 69 | 1020.3 |
| 20260905031613 | 10 | 180 | 0.0 | 0.0 | 0.00 | 0.00 | 0.00 | 69 | 1020.1 |
| 20260905030712 | 10 | 180 | 0.0 | 0.0 | 0.00 | 0.00 | 0.00 | 67 | 1019.9 |
| 20260905025712 | 10 | 180 | 0.0 | 0.0 | 0.00 | 0.00 | 0.00 | 65 | 1020.0 |
| 20260905024713 | 11 | 180 | 0.0 | 0.0 | 0.00 | 0.00 | 0.00 | 64 | 1019.9 |
| 20260905023813 | 11 | 180 | 0.0 | 0.0 | 0.00 | 0.00 | 0.00 | 64 | 1020.0 |
| 20260905020814 | 12 | 180 | 0.0 | 0.0 | 0.00 | 0.00 | 0.00 | 60 | 1020.0 |
| 20260905015812 | 12 | 180 | 0.0 | 0.0 | 0.00 | 0.00 | 0.00 | 60 | 1020.3 |
| 20260905013819 | 12 | 180 | 0.0 | 0.0 | 0.00 | 0.00 | 0.00 | 60 | 1020.0 |
| 20260905012917 | 12 | 225 | 0.0 | 0.0 | 0.00 | 0.00 | 0.00 | 60 | 1020.0 |
| 20260905011918 | 12 | 180 | 0.0 | 0.0 | 0.00 | 0.00 | 0.00 | 59 | 1020.1 |
| 20260905010917 | 12 | 180 | 0.0 | 1.6 | 0.00 | 0.00 | 0.00 | 60 | 1020.1 |
| 20260905005917 | 13 | 225 | 0.0 | 0.0 | 0.00 | 0.00 | 0.00 | 61 | 1020.1 |
| 20260905004918 | 13 | 157 | 0.0 | 3.2 | 0.00 | 0.00 | 0.00 | 61 | 1020.0 |
| 20260905002917 | 13 | 189 | 0.0 | 0.0 | 0.00 | 0.00 | 0.00 | 64 | 1020.3 |
| 20260905001919 | 13 | 180 | 0.0 | 0.0 | 0.00 | 0.00 | 0.00 | 64 | 1020.2 |
| 20260905000916 | 13 | 172 | 0.0 | 1.6 | 0.00 | 0.00 | 0.00 | 64 | 1020.3 |
| 20260904235919 | 13 | 199 | 3.2 | 4.8 | 0.00 | 0.00 | 0.00 | 66 | 1020.3 |
| 20260904234918 | 13 | 157 | 3.2 | 6.4 | 0.00 | 0.00 | 0.00 | 67 | 1020.2 |
| 20260904233016 | 13 | 225 | 1.6 | 4.8 | 0.00 | 0.00 | 0.00 | 66 | 1020.3 |
| 20260904232017 | 13 | 166 | 1.6 | 3.2 | 0.00 | 0.00 | 0.00 | 65 | 1020.1 |
| 20260904231116 | 13 | 157 | 3.2 | 6.4 | 0.00 | 0.00 | 0.00 | 67 | 1020.2 |
| 20260904230119 | 13 | 254 | 0.0 | 0.0 | 0.00 | 0.00 | 0.00 | 67 | 1020.1 |
| 20260904225216 | 13 | 225 | 0.0 | 3.2 | 0.00 | 0.00 | 0.00 | 69 | 1020.3 |
| 20260904223319 | 13 | 205 | 0.0 | 3.2 | 0.00 | 0.00 | 0.00 | 70 | 1020.3 |
| 20260904222318 | 13 | 242 | 3.2 | 6.4 | 0.00 | 0.00 | 0.00 | 70 | 1020.3 |
| 20260904221317 | 13 | 113 | 0.0 | 4.8 | 0.00 | 0.00 | 0.00 | 69 | 1020.1 |
| 20260904215417 | 13 | 261 | 1.6 | 6.4 | 0.00 | 0.00 | 0.00 | 71 | 1020.1 |
| 20260904214417 | 13 | 195 | 1.6 | 4.8 | 0.00 | 0.00 | 0.00 | 70 | 1020.1 |
| 20260904213419 | 13 | 247 | 3.2 | 6.4 | 0.00 | 0.00 | 0.00 | 72 | 1020.1 |
| 20260904212417 | 13 | 186 | 3.2 | 8.0 | 0.00 | 0.00 | 0.00 | 71 | 1019.9 |
| 20260904211416 | 13 | 198 | 3.2 | 9.7 | 0.00 | 0.00 | 0.00 | 71 | 1020.1 |
| 20260904210418 | 13 | 228 | 1.6 | 3.2 | 0.00 | 0.00 | 0.00 | 71 | 1020.1 |
| 20260904205517 | 13 | 214 | 0.0 | 3.2 | 0.00 | 0.00 | 0.00 | 72 | 1020.1 |